Regional Weather Roundup
Issued by NWS

Home | Current Version | Previous Version | Graphics & Text | Print | Product List | Glossary On
Versions: 1 2 3 4 5 6 7 8 9 10 11 12 13 14 15 16 17 18 19 20 21 22 23 24 25 26 27 28 29 30 31 32 33 34 35 36 37 38 39 40 41 42 43 44 45 46 47
000
ASUS43 KDMX 130507
RWRIA

WEATHER ROUNDUP FOR IOWA
NATIONAL WEATHER SERVICE DES MOINES IA
1200 AM CDT SUN JUL 13 2014

NOTE: "FAIR" INDICATES FEW OR NO CLOUDS BELOW 12,000 FEET WITH NO
SIGNIFICANT WEATHER AND/OR OBSTRUCTIONS TO VISIBILITY.

* - THESE STATIONS ARE NOT NWS STATIONS...THUS NOT UNDER NWS
QUALITY CONTROL.  THEY ALSO DO NOT REPORT WEATHER SUCH
AS PRECIPITATION OR FOG.

IAZ001>003-012>014-020>022-031>034-043>046-130600-
   NORTHWEST IOWA

CITY           SKY/WX    TMP DP  RH WIND       PRES   REMARKS
CARROLL *      CLEAR     64  64 100 CALM      29.99F
CHEROKEE *     CLEAR     66  66 100 CALM      30.00F
DENISON *      CLEAR     66  66 100 CALM      29.98F
LE MARS *      CLEAR     68  66  94 NE3       30.02F
ORANGE CITY *  CLEAR     72  66  83 CALM      30.02F
SHELDON *      CLEAR     64  64 100 CALM      30.00F
SIOUX CITY     CLEAR     67  66  97 NW5       30.01F
SPENCER        CLEAR     66  64  93 W3        30.01F
STORM LAKE *   CLEAR     66  66 100 NW7       30.02F
$$

IAZ055>058-069>071-079>083-090>094-130600-
   SOUTHWEST IOWA

CITY           SKY/WX    TMP DP  RH WIND       PRES   REMARKS
ATLANTIC *     CLEAR     66  66 100 CALM      30.00R
AUDUBON *      CLEAR     68  66  94 CALM      30.01S
CLARINDA *     CLOUDY    73  72  94 N5        30.01R
COUNCIL BLFS * CLEAR     68  68 100 CALM      30.01R
CRESTON *      CLEAR     70  68  94 NE7       30.00R
HARLAN  *      CLEAR     66  66 100 CALM      30.03S
LAMONI         TSTM      73  73 100 NE9       29.98S FOG
RED OAK *        N/A     70  70 100 CALM      30.01R
SHENANDOAH *   MOCLDY    73  72  94 CALM      30.02R
$$

IAZ047>049-059>061-072>074-084-130600-
   CENTRAL IOWA

CITY           SKY/WX    TMP DP  RH WIND       PRES   REMARKS
AMES           CLEAR     67  66  97 NW6       29.98F
ANKENY *       CLEAR     68  66  94 CALM      29.98S
CHARITON *     CLOUDY    70  70 100 N6        29.99R
DES MOINES     PTCLDY    71  66  84 N3        29.99R
GRINNELL*      PTCLDY    66  64  94 N3        29.99S
KNOXVILLE *    PTCLDY    70  66  88 N6        29.97S
MARSHALLTOWN   FOG       64  63  96 CALM      29.97F VSB 3/4
PELLA *        PTCLDY    68  67  97 CALM      30.00R
PERRY *          N/A     66  64  94 NW3       29.99S FOG
$$

IAZ004>006-015-016-023>025-035-036-130600-
   NORTH CENTRAL IOWA

CITY           SKY/WX    TMP DP  RH WIND       PRES   REMARKS
ALGONA *       CLEAR     66  64  94 CALM      30.00F
CLARION *      CLEAR     66  66 100 NW5       29.99F
ESTHERVILLE    CLEAR     65  64  97 SW5       29.99F
FORT DODGE *   CLEAR     66  64  94 NW3       29.99F
MASON CITY     FOG       62  62 100 W3        30.00F VSB 1/4
FOREST CITY *  CLEAR     63  63 100 CALM      29.99F
IOWA FALLS *     N/A     64  64 100 NW5       29.99F
$$

IAZ007>011-017>019-026>030-037>042-050>054-066-130600-
   NORTHEAST IOWA

CITY           SKY/WX    TMP DP  RH WIND       PRES   REMARKS
CEDAR RAPIDS   PTCLDY    66  65  96 NW6       29.96S
CHARLES CITY * CLEAR     64  64 100 NW5       29.97F
DECORAH *        N/A    N/A N/A N/A MISG        N/A
DUBUQUE        CLEAR     65  65 100 NW10      29.95R
MONTICELLO *   CLOUDY    66  66 100 NW6       29.96R
OELWEIN *      CLOUDY    66  66 100 NW8       29.98S FOG
WATERLOO       MOCLDY    65  64  97 CALM      29.96S FOG
$$

IAZ064-065-067-068-078-130600-
   EAST CENTRAL IOWA

CITY           SKY/WX    TMP DP  RH WIND       PRES   REMARKS
DAVENPORT        N/A     70  68  93 NW8       29.93S
IOWA CITY      PTCLDY    68  67  96 NW7       29.96S
MT. PLEASANT * HVY RAIN  73  72  94 N7        29.94F
MUSCATINE *    CLOUDY    72  70  94 W5        29.95S
QUAD CITIES    CLOUDY    72  70  94 W9        29.92S
$$

IAZ062-063-075>077-085>089-095>099-130600-
   SOUTHEAST IOWA

CITY           SKY/WX    TMP DP  RH WIND       PRES   REMARKS
BURLINGTON     TSTM      72  71  97 N9        29.94R
FAIRFIELD *    DRIZZLE   70  68  94 N8        29.96S
FORT MADISON * LGT RAIN  75  73  94 NW10      29.94R
KEOKUK *       CLOUDY    73  72  94 S6        29.89F
OSKALOOSA *    MOCLDY    68  68 100 N8        29.97S
CENTERVILLE *  MOCLDY    73  73 100 NW7       29.98F
OTTUMWA        LGT RAIN  70  68  93 N10       29.96S
WASHINGTON *   CLOUDY    70  70 100 N8        29.96F
$$

ABBREVIATIONS USED IN REMARKS
   TC - TEMPERATURES IN CELSIUS
  WCI - WIND CHILL INDEX
   HX - HEAT INDEX
  VSB - VISIBILITY
$$




USA.gov is the U.S. government's official web portal to all federal, state and local government web resources and services.